Location: Santa Giusta
(39.8800°N, 8.6069°E)
Time: 17:43:16
(UTC+00:00)

Cosmos 1850 Rocket - Pass Details

Date: 02 February 2023
Orbit: 753 x 785 km, 74.0° (Epoch: 31 March)

Event Time Altitude Azimuth Distance (km) Brightness Sun altitude
Rises 18:57:33 0° 209° (SSW) 3,205 7.6 -25.5°
Reaches altitude 10° 18:59:57 10° 213° (SSW) 2,280 6.8 -26.0°
Maximum altitude 19:05:01 57° 292° (WNW) 891 4.5 -26.9°
Enters shadow 19:07:26 30° 357° (N) 1,339 5.2 -27.4°
